#timestamp,LO_Frequency,Hit,StdDev 
1516298415.8,286046999.4,N
1516298435.6,286047000.4,N
1516298455.4,286047002.6,N
1516298475.3,286047003.2,N
1516298495.1,286047007.4,N
1516298515.8,286047008.7,N
1516298535.7,286047006.8,N
1516298555.5,286047003.2,N
1516298575.4,286047001.4,N
1516298595.2,286047005.6,N
1516298615.0,286047009.1,N
1516298615.9,286047009.1,N
1516298635.8,286047009.1,N
1516298655.6,286047009.8,N
1516298675.4,286047013.1,Y
1516298695.3,286047012.1,P
1516298715.1,286047011.0,N
1516298735.9,286047010.6,N
1516298755.7,286047013.9,Y
1516298775.5,286047000.6,P
1516298795.4,286047002.4,N
1516298815.2,286047005.2,N
1516298835.1,286047007.9,N
1516298836.0,286047007.9,N
1516298855.8,286047007.3,N
1516298875.6,286047005.8,N
1516298895.5,286047000.7,N
1516298915.3,286046999.9,N
1516298935.1,286046999.8,N
1516298955.9,286047005.9,N
1516298975.7,286047003.4,N
1516298995.6,286047002.0,N
1516299015.4,286047001.4,N
1516299035.2,286046999.6,N
1516299055.1,286046999.0,N
1516299056.0,286046999.0,N
1516299075.8,286047000.2,N
1516299095.6,286047001.4,N
1516299115.5,286047005.6,N
1516299135.3,286047006.9,N
1516299155.2,286047005.0,N
1516299175.9,286047008.5,N
1516299195.7,286047007.7,N
1516299215.6,286047006.1,N
1516299235.4,286047008.2,N
1516299255.2,286047004.7,N
1516299275.1,286047001.5,N
1516299276.0,286047001.5,N
1516299295.8,286046998.5,N
1516299315.7,286047001.2,N
1516299335.5,286047002.2,N
1516299355.3,286047003.5,N
1516299375.2,286047001.7,N
1516299395.0,286046998.6,N
1516299395.9,286046998.6,N
1516299415.8,286046998.3,N
1516299435.6,286046999.4,N
1516299455.4,286046994.9,N
1516299475.3,286046995.4,N
1516299495.1,286046996.1,N
1516299515.8,286046995.7,N
1516299535.7,286046994.0,N
1516299555.5,286046993.7,N
1516299575.4,286046997.7,N
1516299595.2,286046997.3,N
1516299615.0,286046998.9,N
1516299615.9,286046998.9,N
1516299635.8,286047003.4,N
1516299655.6,286047006.4,N
1516299675.5,286047004.5,N
1516299695.3,286047006.0,N
1516299715.1,286047003.4,N
1516299735.9,286047004.4,N
1516299755.7,286047004.0,N
1516299775.5,286047006.0,N
1516299795.4,286047003.4,N
1516299815.2,286047003.5,N
1516299835.1,286047002.8,N
1516299836.0,286047002.8,N
1516299855.8,286046999.0,N
1516299875.6,286047000.8,N
1516299895.5,286047001.4,N
1516299915.3,286047001.4,N
1516299935.2,286047000.7,N
1516299955.9,286046999.5,N
1516299975.7,286046999.6,N
1516299995.6,286046998.0,N
1516300015.4,286046995.7,N
1516300035.2,286046993.3,N
1516300055.1,286046997.7,N
1516300056.0,286046997.7,N
1516300075.8,286046994.9,N
1516300095.7,286046995.4,N
1516300115.5,286046993.3,N
1516300135.4,286046994.6,N
1516300155.2,286046992.7,N
1516300175.0,286046991.4,N
1516300175.9,286046991.4,N
1516300195.8,286046989.9,N
1516300215.6,286046991.0,N
1516300235.5,286046994.6,N
1516300255.3,286046995.7,N
1516300275.1,286046994.1,N
1516300295.9,286046996.2,N
1516300315.7,286046994.6,N
1516300335.6,286046990.2,N
1516300355.4,286046988.6,N
1516300375.2,286046991.6,N
1516300395.1,286046989.8,N
1516300396.0,286046989.8,N
1516300415.8,286046987.0,Y
1516300435.6,286046994.5,P
1516300455.5,286046992.7,P
1516300475.3,286046993.1,P
1516300495.2,286046993.2,Y
1516300515.9,286046996.6,P
1516300535.7,286046996.6,N
1516300555.6,286046996.6,N
1516300575.4,286046998.8,N
1516300595.3,286046998.8,N
1516300615.1,286046998.7,N
1516300616.0,286046998.7,N
1516300635.8,286046999.8,N
1516300655.7,286046999.9,N
1516300675.5,286047000.2,N
1516300695.4,286047007.1,Y
1516300715.2,286047008.0,P
1516300735.0,286047007.8,N
1516300735.9,286047007.8,N
1516300755.8,286047008.2,N
1516300775.6,286047007.4,N
1516300795.5,286047003.1,N
1516300815.3,286047005.5,N
1516300835.1,286047005.9,N
1516300855.9,286047005.3,N
1516300875.7,286047006.6,N
1516300895.5,286047009.5,Y
1516300915.4,286047004.1,P
1516300935.2,286047003.8,P
1516300955.1,286047003.5,P
1516300956.0,286047003.5,Y
1516300975.8,286047000.4,P
1516300995.6,286047003.4,N
1516301015.5,286047006.7,P
1516301035.3,286047005.9,N
1516301055.1,286047001.4,N
1516301075.9,286047000.8,N
1516301095.7,286046997.9,N
1516301115.6,286046997.9,N
1516301135.4,286046993.4,N
1516301155.2,286046996.8,N
1516301175.1,286046999.5,N
1516301176.0,286046999.5,N
1516301195.8,286046996.2,N
1516301215.7,286046994.5,N
1516301235.5,286046993.9,N
1516301255.3,286046996.0,N
1516301275.2,286046997.8,N
1516301295.9,286047000.8,N
1516301315.7,286047002.8,N
1516301335.6,286047002.6,N
1516301355.4,286047005.5,N
1516301375.3,286047005.1,N
1516301395.1,286047005.9,N
1516301396.0,286047005.9,N
1516301415.8,286047002.0,N
1516301435.7,286046996.5,N
1516301455.5,286046995.3,N
1516301475.3,286046996.0,N
1516301495.2,286046996.4,N
1516301515.0,286046995.0,N
1516301515.9,286046995.0,N
1516301535.8,286046998.0,N
1516301555.6,286046993.3,N
1516301575.4,286046996.0,N
1516301595.3,286046998.6,N
1516301615.1,286047000.1,N
1516301635.8,286047000.4,N
1516301655.7,286046998.9,N
1516301675.5,286046996.9,N
1516301695.4,286046997.6,N
1516301715.2,286046995.4,N
1516301735.0,286046995.5,N
1516301735.9,286046995.5,N
1516301755.8,286046995.8,N
1516301775.6,286046994.1,N
1516301795.4,286046992.4,N
1516301815.3,286046990.4,N
1516301835.1,286046990.8,N
1516301855.9,286046991.0,N
1516301875.7,286046990.7,N
1516301895.5,286046989.5,N
1516301915.4,286046987.3,N
1516301935.2,286046987.4,N
1516301955.0,286046989.4,N
1516301955.9,286046989.4,N
1516301975.8,286046992.0,N
1516301995.6,286046992.1,N
